TIANMU-1 20

Last updated on Sat Dec 13 2025 00:02:23 GMT+0000 (Coordinated Universal Time)

1 58661U 23208B 25346.27290328 .00014258 00000+0 50782-3 0 9998 2 58661 97.4321 97.7578 0006321 268.0498 92.0018 15.29027867108822
UTC large
Height (km)
Speed (km/s)
/
Latitude / Longitude
Inclination (degrees)
Orbital Period (minutes)
Azimuth
Elevation
Range (km)
Doppler Factor

Next 0 passes for location: London (51.5072 / 0.1276)

Sorry there are no passes over London.